When you browse on this site, cookies collect data to enhance your experience and personalize the content and advertising you see.
Visit our Privacy Policy to learn more. By continuing to use the site, you agree to this use of cookies and data.
  • In Schweiz
  • Länderverzeichnis
  • Für 7 Tage
  • Wassertemperatur
  • Satellitenkarten
  • Wetterkarte
  • Widgets
  • user-avatar
    Anmelden

    Stündliche Wetter Gasni

    Heute, 19 Juni, Mittwoch

    Zeit Temperatur Niederschläge Wind Luftdruck Luftfeuchtigkeit
    00:00 +20°C° 0 mm 2 m/S 585 mmHg 27%
    01:00 +21°C° 0 mm 1 m/S 585 mmHg 32%
    02:00 +20°C° 0 mm 1 m/S 585 mmHg 36%
    03:00 +19°C° 0 mm 1 m/S 584 mmHg 34%
    04:00 +19°C° 0 mm 1 m/S 584 mmHg 32%
    05:00 +17°C° 0 mm 2 m/S 584 mmHg 29%
    06:00 +18°C° 0 mm 2 m/S 585 mmHg 26%
    07:00 +20°C° 0 mm 2 m/S 585 mmHg 23%
    08:00 +21°C° 0 mm 2 m/S 586 mmHg 20%
    09:00 +23°C° 0 mm 2 m/S 586 mmHg 18%
    10:00 +25°C° 0 mm 2 m/S 587 mmHg 17%
    11:00 +26°C° 0 mm 1 m/S 587 mmHg 15%
    12:00 +27°C° 0 mm 2 m/S 587 mmHg 14%
    13:00 +28°C° 0 mm 3 m/S 587 mmHg 13%
    14:00 +29°C° 0 mm 3 m/S 587 mmHg 12%
    15:00 +29°C° 0 mm 4 m/S 587 mmHg 12%
    16:00 +29°C° 0 mm 4 m/S 587 mmHg 12%
    17:00 +30°C° 0 mm 5 m/S 587 mmHg 12%
    18:00 +28°C° 0 mm 5 m/S 587 mmHg 16%
    19:00 +27°C° 0 mm 5 m/S 587 mmHg 19%
    20:00 +26°C° 0 mm 5 m/S 587 mmHg 23%
    21:00 +25°C° 0 mm 4 m/S 586 mmHg 31%
    22:00 +24°C° 0 mm 3 m/S 586 mmHg 38%
    23:00 +23°C° 0 mm 2 m/S 586 mmHg 46%

    Morgen, 20 Juni, Donnerstag

    Zeit Temperatur Niederschläge Wind Luftdruck Luftfeuchtigkeit
    00:00 +21°C° 0.5 mm 2 m/S 586 mmHg 47%
    01:00 +21°C° 0.5 mm 1 m/S 585 mmHg 49%
    02:00 +20°C° 0.5 mm 1 m/S 585 mmHg 51%
    03:00 +20°C° 0 mm 1 m/S 585 mmHg 51%
    04:00 +20°C° 0 mm 1 m/S 584 mmHg 52%
    05:00 +19°C° 0 mm 1 m/S 584 mmHg 52%
    06:00 +20°C° 0 mm 1 m/S 585 mmHg 48%
    07:00 +19°C° 0 mm 0 m/S 586 mmHg 43%
    08:00 +20°C° 0 mm 0 m/S 586 mmHg 39%
    09:00 +24°C° 0 mm 1 m/S 587 mmHg 34%
    10:00 +25°C° 0 mm 1 m/S 587 mmHg 30%
    11:00 +26°C° 0 mm 1 m/S 587 mmHg 25%
    12:00 +27°C° 0 mm 2 m/S 588 mmHg 22%
    13:00 +29°C° 0 mm 3 m/S 588 mmHg 19%
    14:00 +30°C° 0 mm 4 m/S 588 mmHg 15%
    15:00 +30°C° 0 mm 5 m/S 588 mmHg 14%
    16:00 +32°C° 0 mm 5 m/S 588 mmHg 12%
    17:00 +32°C° 0 mm 6 m/S 588 mmHg 11%
    18:00 +30°C° 0 mm 5 m/S 587 mmHg 12%
    19:00 +29°C° 0 mm 4 m/S 587 mmHg 13%
    20:00 +28°C° 0 mm 4 m/S 587 mmHg 14%
    21:00 +26°C° 0 mm 4 m/S 587 mmHg 21%
    22:00 +25°C° 0 mm 3 m/S 587 mmHg 27%
    23:00 +22°C° 0 mm 3 m/S 587 mmHg 34%

    übermorgen, 21 Juni, Freitag

    Zeit Temperatur Niederschläge Wind Luftdruck Luftfeuchtigkeit
    00:00 +23°C° 0 mm 2 m/S 587 mmHg 36%
    01:00 +21°C° 0 mm 2 m/S 586 mmHg 38%
    02:00 +21°C° 0 mm 1 m/S 586 mmHg 40%
    03:00 +21°C° 0 mm 1 m/S 586 mmHg 41%
    04:00 +20°C° 0 mm 1 m/S 586 mmHg 41%
    05:00 +20°C° 0 mm 1 m/S 585 mmHg 42%
    06:00 +20°C° 0 mm 2 m/S 586 mmHg 38%
    07:00 +21°C° 0 mm 2 m/S 587 mmHg 34%
    08:00 +23°C° 0 mm 2 m/S 588 mmHg 30%
    09:00 +24°C° 0 mm 2 m/S 588 mmHg 28%
    10:00 +25°C° 0 mm 1 m/S 588 mmHg 26%
    11:00 +26°C° 0 mm 1 m/S 588 mmHg 24%
    12:00 +28°C° 0 mm 2 m/S 588 mmHg 21%
    13:00 +29°C° 0 mm 3 m/S 588 mmHg 19%
    14:00 +30°C° 0 mm 4 m/S 588 mmHg 16%
    15:00 +32°C° 0 mm 5 m/S 588 mmHg 15%
    16:00 +32°C° 0 mm 5 m/S 588 mmHg 14%
    17:00 +32°C° 0 mm 5 m/S 588 mmHg 13%
    18:00 +30°C° 0 mm 6 m/S 588 mmHg 20%
    19:00 +28°C° 0 mm 7 m/S 587 mmHg 27%
    20:00 +26°C° 0 mm 9 m/S 587 mmHg 34%
    21:00 +24°C° 0 mm 6 m/S 587 mmHg 38%
    22:00 +23°C° 0 mm 4 m/S 587 mmHg 42%
    23:00 +24°C° 0 mm 1 m/S 587 mmHg 45%

    22 Juni, Samstag

    Zeit Temperatur Niederschläge Wind Luftdruck Luftfeuchtigkeit
    00:00 +23°C° 0 mm 1 m/S 587 mmHg 46%
    01:00 +22°C° 0 mm 1 m/S 586 mmHg 48%
    02:00 +21°C° 0 mm 2 m/S 586 mmHg 49%
    03:00 +21°C° 0 mm 1 m/S 586 mmHg 49%
    04:00 +21°C° 0 mm 1 m/S 585 mmHg 50%
    05:00 +20°C° 0 mm 1 m/S 585 mmHg 50%
    06:00 +21°C° 0 mm 1 m/S 586 mmHg 45%
    07:00 +22°C° 0 mm 1 m/S 586 mmHg 41%
    08:00 +24°C° 0 mm 1 m/S 587 mmHg 37%
    09:00 +25°C° 0 mm 1 m/S 588 mmHg 34%
    10:00 +26°C° 0 mm 1 m/S 588 mmHg 31%
    11:00 +27°C° 0 mm 1 m/S 588 mmHg 27%
    12:00 +28°C° 0 mm 2 m/S 588 mmHg 24%
    13:00 +29°C° 0 mm 3 m/S 588 mmHg 21%
    14:00 +30°C° 0 mm 3 m/S 588 mmHg 18%
    15:00 +31°C° 0 mm 3 m/S 588 mmHg 17%
    16:00 +32°C° 0 mm 4 m/S 588 mmHg 16%
    17:00 +32°C° 0 mm 4 m/S 588 mmHg 15%
    18:00 +30°C° 0 mm 4 m/S 588 mmHg 17%
    19:00 +30°C° 0 mm 4 m/S 588 mmHg 19%
    20:00 +29°C° 0 mm 4 m/S 588 mmHg 21%
    21:00 +27°C° 0.1 mm 4 m/S 588 mmHg 26%
    22:00 +26°C° 0.1 mm 4 m/S 587 mmHg 31%
    23:00 +25°C° 0.1 mm 4 m/S 587 mmHg 36%

    23 Juni, Sonntag

    Zeit Temperatur Niederschläge Wind Luftdruck Luftfeuchtigkeit
    00:00 +23°C° 0.2 mm 4 m/S 587 mmHg 38%
    01:00 +22°C° 0.2 mm 4 m/S 586 mmHg 40%
    02:00 +22°C° 0.2 mm 3 m/S 586 mmHg 41%
    03:00 +21°C° 0 mm 3 m/S 586 mmHg 42%
    04:00 +20°C° 0 mm 3 m/S 586 mmHg 44%
    05:00 +20°C° 0 mm 3 m/S 586 mmHg 45%
    06:00 +21°C° 0 mm 3 m/S 586 mmHg 40%
    07:00 +23°C° 0 mm 2 m/S 587 mmHg 35%
    08:00 +24°C° 0 mm 2 m/S 588 mmHg 30%
    09:00 +25°C° 0 mm 2 m/S 588 mmHg 28%
    10:00 +26°C° 0 mm 2 m/S 588 mmHg 27%
    11:00 +27°C° 0 mm 2 m/S 588 mmHg 26%
    12:00 +29°C° 0 mm 2 m/S 588 mmHg 22%
    13:00 +30°C° 0 mm 3 m/S 588 mmHg 19%
    14:00 +32°C° 0 mm 4 m/S 588 mmHg 16%
    15:00 +32°C° 0 mm 4 m/S 588 mmHg 17%
    16:00 +30°C° 0 mm 5 m/S 588 mmHg 18%
    17:00 +30°C° 0 mm 5 m/S 587 mmHg 18%
    18:00 +29°C° 0 mm 6 m/S 587 mmHg 23%
    19:00 +28°C° 0 mm 6 m/S 587 mmHg 28%
    20:00 +26°C° 0 mm 7 m/S 587 mmHg 33%
    21:00 +24°C° 1.4 mm 6 m/S 587 mmHg 42%
    22:00 +22°C° 1.4 mm 4 m/S 586 mmHg 52%
    23:00 +20°C° 1.4 mm 3 m/S 586 mmHg 61%

    24 Juni, Montag

    Zeit Temperatur Niederschläge Wind Luftdruck Luftfeuchtigkeit
    00:00 +20°C° 0.4 mm 2 m/S 586 mmHg 59%
    01:00 +20°C° 0.4 mm 2 m/S 586 mmHg 58%
    02:00 +20°C° 0.4 mm 2 m/S 586 mmHg 57%
    03:00 +19°C° 0 mm 2 m/S 586 mmHg 58%
    04:00 +20°C° 0 mm 1 m/S 586 mmHg 59%
    05:00 +20°C° 0 mm 1 m/S 586 mmHg 60%
    06:00 +21°C° 0 mm 1 m/S 586 mmHg 55%
    07:00 +22°C° 0 mm 1 m/S 586 mmHg 50%
    08:00 +23°C° 0 mm 1 m/S 587 mmHg 45%
    09:00 +24°C° 0 mm 1 m/S 587 mmHg 41%
    10:00 +25°C° 0 mm 1 m/S 587 mmHg 37%
    11:00 +27°C° 0 mm 1 m/S 588 mmHg 32%
    12:00 +28°C° 0 mm 2 m/S 588 mmHg 28%
    13:00 +29°C° 0 mm 3 m/S 588 mmHg 24%
    14:00 +30°C° 0 mm 3 m/S 588 mmHg 21%
    15:00 +28°C° 0.2 mm 5 m/S 587 mmHg 25%
    16:00 +27°C° 0.2 mm 7 m/S 586 mmHg 29%
    17:00 +26°C° 0.2 mm 10 m/S 586 mmHg 34%
    18:00 +26°C° 0 mm 7 m/S 586 mmHg 32%
    19:00 +26°C° 0 mm 5 m/S 587 mmHg 30%
    20:00 +27°C° 0 mm 3 m/S 587 mmHg 28%
    21:00 +26°C° 0 mm 2 m/S 587 mmHg 32%
    22:00 +25°C° 0 mm 2 m/S 587 mmHg 35%
    23:00 +24°C° 0 mm 1 m/S 587 mmHg 39%
    Mehr zeigen